Stations météo

réclame
Mon MeteoGroup
Pau, France (7610): Température de l'air & dewpoint: 13.12.2018 15:00:00 - 19.12.2018 15:00:00 (CET)Pau, France (7610): Température de l'air 5cm: 13.12.2018 15:00:00 - 19.12.2018 15:00:00 (CET)Pau, France (7610): Température de l'air -20cm & Température de l'air -100cm: 13.12.2018 15:00:00 - 19.12.2018 15:00:00 (CET)Pau, France (7610): Vitesse du vent & gusts: 13.12.2018 15:00:00 - 19.12.2018 15:00:00 (CET)Pau, France (7610): Direction du vent: 13.12.2018 15:00:00 - 19.12.2018 15:00:00 (CET)Pau, France (7610): reduced air pressure: 13.12.2018 15:00:00 - 19.12.2018 15:00:00 (CET)Pau, France (7610): visibility: 13.12.2018 15:00:00 - 19.12.2018 15:00:00 (CET)Pau, France (7610): Ensoleillement: 13.12.2018 15:00:00 - 19.12.2018 15:00:00 (CET)Pau, France (7610): Quantités de précipitations: 13.12.2018 15:00:00 - 19.12.2018 15:00:00 (CET)
Date & Time tt [°C] td [°C] tt 5cm [°C] tt -20cm [°C] tt -100cm [°C] ff [km/h] ff [knt] fx [km/h] fx [knt] dd ppp [hPa] vv [km] sd [min] rr [mm]
19.12.2018 15:00:00 13,8 3,8 14,1 10,3 12,9 27 14 48 26 W 1018,6 54 48 0,0
19.12.2018 14:00:00 14,3 3,1 14,0 10,3 12,9 29 15 52 28 WSW 1018,2 34 49 0,0
19.12.2018 13:00:00 13,8 4,6 14,1 10,2 12,9 22 12 34 18 W 1018,4 48 49 0,0
19.12.2018 12:00:00 13,0 4,9 16,0 10,3 12,9 8 4 15 8 WSW 1018,7 52 60 0,0
19.12.2018 11:00:00 9,9 5,3 11,7 10,3 12,9 2 1 9 5 ESE 1019,0 32 60 0,0
19.12.2018 10:00:00 7,0 4,1 3,2 10,4 12,9 4 2 12 7 S 1018,8 33 55 0,0
19.12.2018 09:00:00 3,9 3,2 0,8 10,4 12,9 8 4 17 9 SE 1018,3 24 4 0,0
19.12.2018 08:00:00 3,2 2,3 -0,4 10,4 12,9 5 3 13 7 SSE 1018,6 15 0 0,0
19.12.2018 07:00:00 2,9 2,0 -0,4 10,4 12,9 4 2 8 5 E 1018,7 17 0 0,0
19.12.2018 06:00:00 4,2 3,2 0,5 10,5 12,9 5 3 11 6 E 1018,3 20 0 0,0
19.12.2018 05:00:00 5,2 4,0 2,0 10,5 12,9 6 4 9 5 ENE 1018,3 30 0 0,0
19.12.2018 04:00:00 6,6 5,2 2,4 10,5 12,9 3 1 8 5 ESE 1018,6 38 0 0,0
19.12.2018 03:00:00 7,5 5,0 3,6 10,4 12,9 4 2 10 6 E 1018,4 45 0 0,0
19.12.2018 02:00:00 9,4 5,9 8,0 10,5 12,9 6 3 15 8 E 1018,3 49 0 0,0
19.12.2018 01:00:00 9,8 5,8 8,6 10,5 12,9 9 5 21 12 ENE 1018,4 53 0 0,0
19.12.2018 00:00:00 9,8 4,6 7,7 10,5 12,9 11 6 20 11 NNW 1018,0 45 0 0,0
18.12.2018 23:00:00 8,8 6,2 7,5 10,5 12,9 5 3 11 6 NE 1017,5 23 0 0,0
18.12.2018 22:00:00 8,8 5,5 7,5 10,5 12,9 2 1 20 11 N 1017,0 31 0 0,2
18.12.2018 21:00:00 9,0 6,3 7,7 10,5 12,9 6 4 18 10 N 1016,2 23 0 0,0
18.12.2018 20:00:00 9,7 5,1 8,0 10,5 12,9 13 7 21 11 E 1015,6 40 0 0,0
18.12.2018 19:00:00 8,7 5,1 6,3 10,5 12,9 13 7 18 10 SE 1015,4 32 0 0,0
18.12.2018 18:00:00 8,4 5,0 6,2 10,4 12,9 6 3 11 6 NE 1015,4 47 0 0,0
18.12.2018 17:00:00 9,7 4,9 8,5 10,4 12,9 9 5 17 9 ESE 1014,6 60 0 0,0
18.12.2018 16:00:00 10,2 5,8 9,7 10,4 12,9 9 5 16 9 NNE 1014,9 60 0 0,0
18.12.2018 15:00:00 11,2 5,7 11,2 10,4 12,9 6 3 12 7 NNE 1013,9 60 0 0,0
18.12.2018 14:00:00 12,0 5,4 12,8 10,4 12,9 7 4 15 8 ESE 1014,2 60 0 0,0
18.12.2018 13:00:00 11,6 5,5 12,2 10,4 12,9 10 5 15 8 ESE 1015,3 44 22 0,0
18.12.2018 12:00:00 9,2 4,4 9,0 10,4 13,0 5 3 9 5 ENE 1016,6 47 20 0,0
18.12.2018 11:00:00 6,4 2,8 5,2 10,5 12,9 2 1 8 5 SW 1017,7 60 15 0,0
18.12.2018 10:00:00 4,1 2,3 3,3 10,5 12,9 5 3 8 4 ESE 1017,6 59 0 0,0
18.12.2018 09:00:00 3,8 1,7 1,5 10,6 13,0 3 2 10 5 E 1018,1 57 0 0,0
18.12.2018 08:00:00 3,6 0,8 1,7 10,7 12,9 8 4 14 7 SSE 1018,7 60 0 0,0
18.12.2018 07:00:00 3,3 0,7 -0,5 10,7 12,9 8 5 16 9 ESE 1019,2 60 0 0,0
18.12.2018 06:00:00 1,9 0,4 -1,3 10,8 13,0 11 6 15 8 SE 1020,3 59 0 0,0
18.12.2018 05:00:00 1,9 0,7 -1,1 10,8 13,0 3 2 10 6 SSW 1021,2 57 0 0,0
18.12.2018 04:00:00 2,7 0,3 -0,2 10,9 13,0 0 0 19 10 N 1022,0 60 0 0,0
18.12.2018 03:00:00 4,6 1,8 1,1 10,9 12,9 11 6 18 10 ESE 1022,3 60 0 0,0
18.12.2018 02:00:00 4,5 2,5 0,5 11,0 13,0 10 5 15 8 ESE 1023,9 58 0 0,0
18.12.2018 01:00:00 5,1 2,9 0,9 11,0 13,0 7 4 13 7 ESE 1024,7 54 0 0,0
18.12.2018 00:00:00 5,8 3,3 2,4 11,0 13,0 6 4 17 9 SE 1025,3 56 0 0,0
17.12.2018 23:00:00 6,3 3,8 2,4 11,1 13,0 7 4 12 6 SE 1025,7 48 0 0,0
17.12.2018 22:00:00 5,2 3,8 1,0 11,1 13,0 7 4 12 6 ESE 1026,4 25 0 0,0
17.12.2018 21:00:00 5,0 3,8 0,8 11,1 13,0 5 3 9 5 ESE 1027,2 25 0 0,0
17.12.2018 20:00:00 6,2 4,0 2,5 11,0 12,9 8 4 16 8 ESE 1027,8 26 0 0,0
17.12.2018 19:00:00 7,0 4,6 3,9 11,0 12,9 10 5 14 8 E 1027,8 31 0 0,0
17.12.2018 18:00:00 8,4 5,1 5,2 11,0 12,9 9 5 15 8 E 1028,0 40 0 0,0
17.12.2018 17:00:00 11,0 5,7 9,4 11,0 13,0 5 3 12 7 SE 1028,2 60 49 0,0
17.12.2018 16:00:00 11,9 6,2 12,3 10,9 13,0 7 4 15 8 W 1028,3 43 25 0,0
17.12.2018 15:00:00 12,1 5,5 12,5 10,9 13,0 8 4 14 7 W 1027,9 15 13 0,0
17.12.2018 14:00:00 12,0 5,2 13,1 10,9 13,0 10 5 18 10 SW 1028,3 60 11 0,0
17.12.2018 13:00:00 12,3 5,9 13,9 10,9 13,0 9 5 16 9 SW 1028,6 50 48 0,0
17.12.2018 12:00:00 11,3 6,4 14,3 10,9 13,0 9 5 15 8 SSE 1029,1 57 57 0,0
17.12.2018 11:00:00 10,4 6,5 8,2 11,0 13,0 10 5 16 9 SE 1029,5 45 37 0,0
17.12.2018 10:00:00 8,6 6,0 6,6 11,0 13,0 8 5 20 11 S 1029,5 43 19 0,0
17.12.2018 09:00:00 7,7 5,7 6,1 11,0 13,0 11 6 21 11 SW 1029,2 60 0 0,0
17.12.2018 08:00:00 7,1 6,0 6,0 11,1 13,0 5 3 16 9 NNE 1028,5 19 0 0,2
17.12.2018 07:00:00 7,4 5,7 6,1 11,1 13,0 9 5 16 9 SSE 1027,7 50 0 0,0
17.12.2018 06:00:00 6,7 5,5 5,6 11,1 13,0 12 6 37 20 S 1027,3 60 0 1,0
17.12.2018 05:00:00 7,9 6,0 6,5 11,1 13,0 14 7 26 14 SSW 1026,7 17 0 0,2
17.12.2018 04:00:00 7,6 6,4 6,6 11,2 13,0 6 4 21 11 NNW 1026,5 8 0 0,8
17.12.2018 03:00:00 8,0 6,0 6,3 11,2 13,0 16 8 38 21 WSW 1025,6 30 0 1,4
17.12.2018 02:00:00 7,6 5,6 6,2 11,3 13,1 11 6 27 15 SSW 1025,0 60 0 0,0
17.12.2018 01:00:00 7,2 5,8 6,1 11,3 13,0 18 10 44 24 WSW 1025,0 5 0 6,3
17.12.2018 00:00:00 8,8 5,5 7,2 11,3 13,1 21 12 40 22 WSW 1024,0 57 0 0,4
16.12.2018 23:00:00 9,4 5,6 8,1 11,3 13,1 20 11 40 21 WSW 1023,1 57 0 0,0
16.12.2018 22:00:00 9,1 5,8 7,9 11,3 13,0 19 10 35 19 WSW 1022,4 53 0 0,0
16.12.2018 21:00:00 9,6 6,1 8,4 11,3 13,1 24 13 44 24 WSW 1021,3 48 0 0,0
16.12.2018 20:00:00 9,9 7,1 8,3 11,3 13,0 20 11 45 25 WSW 1020,4 45 0 0,4
16.12.2018 19:00:00 9,8 7,4 8,0 11,3 13,1 27 15 43 23 WSW 1019,1 56 0 0,8
16.12.2018 18:00:00 9,3 7,1 8,1 11,3 13,1 12 7 40 22 WSW 1017,1 24 0 0,4
16.12.2018 17:00:00 9,4 8,0 8,8 11,3 13,1 13 7 18 10 SSE 1016,4 30 0 0,0
16.12.2018 16:00:00 9,2 8,3 8,1 11,2 13,1 5 3 81 44 SW 1016,1 59 2 2,1
16.12.2018 15:00:00 10,9 9,7 10,6 11,2 13,1 18 10 70 38 NW 1014,8 2,0 0 0,6
16.12.2018 14:00:00 11,1 10,0 11,0 11,2 13,1 9 5 15 8 NW 1013,1 8 0 0,8
16.12.2018 13:00:00 11,6 10,0 11,1 11,2 13,1 6 4 19 11 NE 1012,5 36 10 0,0
16.12.2018 12:00:00 10,6 9,7 10,7 11,2 13,1 13 7 19 11 N 1013,5 18 5 0,0
16.12.2018 11:00:00 10,5 9,9 10,0 11,1 13,1 6 3 23 13 N 1014,6 27 0 0,2
16.12.2018 10:00:00 10,0 9,4 9,6 11,1 13,1 4 2 20 11 NNE 1015,5 20 0 0,2
16.12.2018 09:00:00 9,9 9,3 9,4 11,1 13,1 13 7 22 12 SSE 1015,7 17 0 1,2
16.12.2018 08:00:00 9,7 8,9 9,5 11,1 13,1 8 4 14 8 NNW 1016,2 5 0 1,0
16.12.2018 07:00:00 10,6 9,8 10,3 11,1 13,1 4 2 19 10 N 1016,3 9 0 1,0
16.12.2018 06:00:00 11,1 10,3 10,8 11,1 13,1 9 5 14 8 WNW 1016,7 3,9 0 0,6
16.12.2018 05:00:00 11,6 10,5 11,1 11,1 13,1 3 2 7 4 S 1016,8 9 0 0,2
16.12.2018 04:00:00 11,9 10,6 11,0 11,1 13,1 8 4 19 10 NW 1017,0 20 0 0,0
16.12.2018 03:00:00 11,8 10,4 10,7 11,1 13,2 7 4 14 8 NNW 1017,5 34 0 0,0
16.12.2018 02:00:00 11,7 9,8 10,6 11,1 13,2 9 5 24 13 NNW 1017,7 40 0 0,2
16.12.2018 01:00:00 11,1 10,2 10,3 11,0 13,1 4 2 9 5 SSW 1017,7 12 0 0,0
16.12.2018 00:00:00 11,1 10,2 9,5 11,0 13,1 2 1 7 4 N 1017,3 8 0 0,0
15.12.2018 23:00:00 11,0 9,9 10,3 11,0 13,1 4 2 8 4 WNW 1016,9 11 0 0,2
15.12.2018 22:00:00 11,3 9,9 10,4 11,0 13,2 4 2 13 7 ENE 1016,4 16 0 0,0
15.12.2018 21:00:00 11,7 10,4 10,3 10,9 13,2 3 2 10 5 ESE 1016,1 18 0 0,0
15.12.2018 20:00:00 11,2 10,1 9,2 10,9 13,2 4 2 7 4 ESE 1016,4 13 0 0,0
15.12.2018 19:00:00 12,0 10,7 9,8 10,8 13,2 6 3 16 9 SSE 1016,4 19 0 0,0
15.12.2018 18:00:00 12,6 11,0 10,3 10,8 13,2 3 2 13 7 E 1016,7 36 0 0,0
15.12.2018 17:00:00 14,1 11,3 13,0 10,8 13,2 8 4 15 8 SE 1016,5 35 0 0,0
15.12.2018 16:00:00 14,5 10,9 13,4 10,7 13,2 5 3 17 9 ESE 1017,2 60 0 0,0
15.12.2018 15:00:00 15,0 10,6 14,2 10,6 13,2 8 5 13 7 ESE 1016,7 58 2 0,0
15.12.2018 14:00:00 15,2 10,0 17,7 10,6 13,2 7 4 11 6 SE 1017,4 60 20 0,0
15.12.2018 13:00:00 14,2 8,8 12,8 10,6 13,2 6 3 11 6 E 1018,5 36 19 0,0
15.12.2018 12:00:00 12,0 7,1 11,0 10,7 13,2 4 2 16 9 SSE 1020,3 60 17 0,0
15.12.2018 11:00:00 10,5 7,4 7,9 10,7 13,2 9 5 15 8 SSE 1020,6 55 12 0,0
15.12.2018 10:00:00 8,4 6,2 6,8 10,7 13,2 10 5 13 7 SSE 1021,1 60 0 0,0
15.12.2018 09:00:00 7,2 5,7 6,4 10,7 13,2 10 5 16 9 ESE 1020,6 60 0 0,0
15.12.2018 08:00:00 6,8 5,6 5,9 10,7 13,2 11 6 16 9 SE 1020,9 59 0 0,0
15.12.2018 07:00:00 6,3 5,4 5,5 10,8 13,2 5 3 16 9 SE 1021,2 45 0 0,0
15.12.2018 06:00:00 6,1 5,5 4,6 10,8 13,2 9 5 16 9 ESE 1021,4 37 0 0,0
15.12.2018 05:00:00 5,9 5,5 2,7 10,8 13,2 10 5 16 8 ESE 1021,7 12 0 0,0
15.12.2018 04:00:00 6,0 5,4 2,4 10,8 13,2 11 6 15 8 ESE 1022,2 3,0 0 0,0
15.12.2018 03:00:00 7,0 6,4 3,4 10,8 13,2 3 2 9 5 E 1022,8 0,4 0 0,0
15.12.2018 02:00:00 7,6 6,8 6,1 10,8 13,2 5 3 12 6 SE 1023,1 18 0 0,2
15.12.2018 01:00:00 8,1 7,3 5,9 10,8 13,2 8 5 12 7 S 1023,3 19 0 0,0
15.12.2018 00:00:00 8,7 8,1 7,7 10,8 13,2 8 4 12 6 S 1023,6 10 0 0,0
14.12.2018 23:00:00 9,1 8,5 8,5 10,8 13,2 7 4 13 7 SW 1023,7 6 0 0,0
14.12.2018 22:00:00 9,0 8,2 8,2 10,8 13,2 8 4 11 6 SSW 1023,8 6 0 0,0
14.12.2018 21:00:00 8,8 7,9 7,4 10,8 13,2 6 3 10 5 SW 1023,9 20 0 0,0
14.12.2018 20:00:00 8,9 7,5 7,2 10,8 13,2 8 4 17 9 W 1023,7 19 0 0,4
14.12.2018 19:00:00 9,5 7,4 8,4 10,7 13,2 6 3 12 6 W 1023,0 39 0 0,0
14.12.2018 18:00:00 9,9 7,7 9,0 10,7 13,2 5 3 9 5 W 1022,5 35 0 0,0
14.12.2018 17:00:00 10,3 8,1 9,8 10,7 13,3 4 2 15 8 SW 1022,1 50 0 0,0
14.12.2018 16:00:00 10,5 7,9 10,2 10,7 13,2 11 6 26 14 WSW 1022,1 38 0 0,0
14.12.2018 15:00:00 10,7 7,6 10,6 10,7 13,3 16 8 26 14 W 1021,0 45 0 0,0
14.12.2018 14:00:00 10,6 7,5 10,3 10,6 13,3 11 6 23 12 W 1020,4 42 0 0,0
14.12.2018 13:00:00 10,0 7,6 9,9 10,6 13,3 14 8 23 12 WNW 1020,4 20 4 0,0
14.12.2018 12:00:00 10,7 8,3 9,8 10,6 13,3 11 6 21 11 W 1019,9 57 17 0,0
14.12.2018 11:00:00 10,5 8,9 9,7 10,6 13,3 11 6 22 12 WSW 1019,6 46 20 0,0
14.12.2018 10:00:00 9,4 8,8 7,7 10,6 13,3 11 6 17 9 SW 1018,6 12 20 0,0
14.12.2018 09:00:00 8,2 7,6 3,8 10,6 13,3 7 4 11 6 SW 1017,7 10 0 0,0
14.12.2018 08:00:00 8,9 8,1 8,3 10,6 13,3 10 6 19 10 WNW 1016,5 13 0 0,0
14.12.2018 07:00:00 9,4 8,6 9,0 10,6 13,3 11 6 19 10 NW 1015,5 14 0 0,2
14.12.2018 06:00:00 9,4 8,6 8,9 10,6 13,3 12 7 22 12 WSW 1014,7 23 0 0,6
14.12.2018 05:00:00 9,3 8,7 8,9 10,6 13,3 13 7 29 15 WSW 1014,4 17 0 0,6
14.12.2018 04:00:00 9,2 8,4 8,6 10,7 13,3 9 5 15 8 WSW 1014,4 5 0 0,2
14.12.2018 03:00:00 8,9 8,1 7,9 10,6 13,3 9 5 16 9 WSW 1014,2 12 0 0,0
14.12.2018 02:00:00 9,1 7,9 8,3 10,6 13,3 11 6 22 12 W 1013,6 29 0 0,0
14.12.2018 01:00:00 9,4 8,2 8,7 10,6 13,2 15 8 33 18 WNW 1012,9 20 0 0,2
14.12.2018 00:00:00 9,6 9,0 9,0 10,6 13,3 16 9 26 14 W 1012,4 11 0 0,4
13.12.2018 23:00:00 9,3 8,7 8,9 10,7 13,3 12 7 21 12 WSW 1011,7 9 0 0,8
13.12.2018 22:00:00 9,3 8,5 8,8 10,7 13,3 14 8 23 12 WSW 1011,3 12 0 0,4
13.12.2018 21:00:00 9,2 8,3 8,6 10,7 13,3 14 8 39 21 W 1010,6 18 0 0,6
13.12.2018 20:00:00 9,2 8,0 8,5 10,7 13,3 27 15 53 29 W 1009,4 13 0 1,8
13.12.2018 19:00:00 8,9 8,0 8,5 10,7 13,3 21 11 36 19 WSW 1008,8 11 0 1,9
13.12.2018 18:00:00 9,3 8,2 8,8 10,7 13,3 24 13 44 24 W 1008,1 11 0 2,4
13.12.2018 17:00:00 9,5 8,4 8,9 10,7 13,3 29 16 50 27 W 1007,1 9 0 2,8
13.12.2018 16:00:00 9,2 8,3 8,7 10,7 13,3 34 18 54 29 W 1006,0 3,9 0 6,5
13.12.2018 15:00:00 9,5 8,3 9,0 10,7 13,3 29 16 54 29 WSW 1004,7 3,9 0 3,0

tt = Température de l'air
td = dewpoint
tt 5cm = Température de l'air 5cm
tt -20cm = Température de l'air -20cm
tt -100cm = Température de l'air -100cm
ff = Vitesse du vent
fx = gusts
dd = Direction du vent
ppp = reduced air pressure
vv = visibility
sd = Ensoleillement
rr = Quantités de précipitations

stations d'obs. à proximité